Погода в Хатанге

Поиск расширенной информации на нашем сайте:

Полезная информация:

Новости сайта



02.01.2020
Опубликован Долгосрочный прогноз погоды по городам России и ближнего зарубежья на январь 2020 года.
Карты: Прогноз на январь и февраль 2020 года, Сравнение прогнозируемой аномалии приземной температуры воздуха на январь 2020 года по разным моделям.




Погода в Хатанге - сегодня

Время (UTC), дата Ветер
(°,м/с) 
Видим.   Явления Облачность Т
(°С)
Тd
(°С)
f(%) Тe
(°С)
Pmin
(гПа)
dP
(гПа)
Po
(мм)
O2
(г/м3)
Тmin Tmax R s Состояние
почвы
12 15.11.20 240 (ЮЗ) 6{12}  2000 м  слаб. ливневой снег  9/9 270 м кучево-дожд. 
[Cb cap]
-12.8 -13.4 95 -19  1010.2  1.1  754  320    -12.8  0.6     
00 16.11.20 250 (З) 10 км  слаб. ливневой снег  9/9 270 м кучево-дожд. 
[Cb cap]
-11.3 -12.6 90 -16  1016.2  0.7  759  320  -12.8    0.9  31  равномерный
сухой снег
100% 
12 16.11.20 220 (ЮЗ) 7{10}  4000 м  слаб. ливневой снег  9/9 210 м кучево-дожд. 
[Cb cap]
-12 -13.9 86 -18  1013  -1.2  757  320    -11.2  0.5     
00 17.11.20 250 (З) 9{13}  4000 м  слаб. ливневой снег  9/9 240 м кучево-дожд. 
[Cb cap]
-6.9 -7.4 96 -13  1005.5    751  311  -12.3    0.8  33  равномерный
сухой снег
100% 
12 17.11.20 230 (ЮЗ) 8{12}  2000 м  слаб. ливневой снег  9/9 240 м кучево-дожд. 
[Cb cap]
-5.4 -6.1 95 -11  999.1  -2.3  746  307    -5.4  0.6     
00 18.11.20 310 (СЗ) 10 км  слаб. ливневой снег  9/9 300 м 
[Sc]
-6.3 -7.5 91 -11  1001.1  3.1  748  309  -6.3    29  равномерный
сухой снег
100% 
12 18.11.20 240 (ЮЗ) 20000 м  позёмок  9/9 330 м 
[Sc]
-7.3 -8.7 90 -13  1007  -0.4  752  312    -6  0.0     
00 19.11.20 240 (ЮЗ) 13{16}  1000 м  ливневой снег  9/9 180 м кучево-дожд. 
[Cb cap]
-4.7 -5.3 96 -12  995.9  -1.8  744  306  -7.6    31  равномерный
сухой снег
100% 
12 19.11.20 260 (З) 14{18}  1000 м  ливневой снег  9/9 180 м кучево-дожд. 
[Cb cap]
-4.7 -4.7 100 -12  996.8  0.8  744  306    -4.2     
00 20.11.20 240 (ЮЗ) 7{12}  10 км  слаб. ливневой снег  9/9 330 м кучево-дожд. 
[Cb cap]
-5.6 -7.3 88 -11  1001.3  748  308  -5.7    29  равномерный
сухой снег
100% 
12 20.11.20 170 (Ю) 20000 м  {ливн. осадки}  9/9 960 м 
[Sc]
-7.1 -10.9 74 -11  1001.5  -0.7  748  310    -4.4  0.2     
15 20.11.20 160 (Ю) 20000 м    9/9 900 м 
[Sc]
-8.9 -12.3 76 -13  999.8  -1.8  747  312           
18 20.11.20 160 (Ю) 20000 м    9/9 1000 м 
[Sc]
-9.8 -13.4 75 -14  997.3  -2.5  745  312           
21 20.11.20 130 (ЮВ) 20000 м    8/0 средняя, верхняя 
[Ac trans|Ci fib]
-14.1 -16.8 80 -18  993.3  -4  742  317           
12 21.11.20 170 (Ю) 20000 м  позёмок{ливн. осадки}  9/5 330 м средняя 
[Sc|Ac und]
-9.8 -12.4 81 -15  982.7  -2.8  734  308    -9.3     
00 22.11.20 250 (З) 10{14}  1000 м  ливневой снег  9/9 180 м кучево-дожд. 
[Cb cap]
-8.4 -9.5 92 -15  986.1  4.3  737  307  -9.8    31  равномерный
сухой снег
100% 
12 22.11.20 260 (З) 13{15}  2000 м  слаб. ливневой снег  9/9 210 м кучево-дожд. 
[Cb cap]
-9.7 -10.9 91 -18  997.1  2.4  745  312    -6.8     
00 23.11.20 300 (СЗ) 10{18}  2000 м  слаб. ливневой снег  9/9 210 м кучево-дожд. 
[Cb cap]
-9.2 -10.3 92 -16  1002.8  2.8  749  313  -11.3    30  равномерный
сухой снег
100% 
12 23.11.20 310 (СЗ) 6{10}  10 км  слаб. ливневой снег  9/6 700 м кучево-дожд., средняя 
[Cb cap|Ac und]
-8.3 -11.1 80 -13  1013.6  2.8  757  316    -8  0.8     
00 24.11.20 240 (ЮЗ) 10 км  слаб. ливневой снег  10/9 240 м кучево-дожд. 
[Cb cap]
-14.4 -15.9 88 -21  1020.8  1.3  762  326  -14.4    30  равномерный
сухой снег
100% 
12 24.11.20 220 (ЮЗ) 4000 м  слаб. ливневой снег  9/9 180 м кучево-дожд. 
[Cb cap]
-8.5 -9.2 95 -13  1023.4  0.4  764  319    -8.5  0.7     
00 25.11.20 210 (ЮЗ) 10 км  слаб. ливневой снег  9/5 630 м кучево-дожд., средняя 
[Cb cap|Ac und]
-8.1 -8.7 95 -12  1026.1  0.8  766  319  -8.5    0.3  30  равномерный
сухой снег
100% 
12 25.11.20 250 (З) 10 км  слаб. ливневой снег  9/9 210 м кучево-дожд. 
[Cb cap]
-9.7 -10.5 94 -13  1027.7  0.6  767  322    -7.5  0.8     
00 26.11.20 190 (Ю) 4000 м  слаб. ливневой снег  9/9 210 м кучево-дожд. 
[Cb cap]
-9.4 -10.6 91 -14  1026.4  -0.3  767  321  -10.2    0.2  32  равномерный
сухой снег
100% 
12 26.11.20 240 (ЮЗ) 10 км  слаб. ливневой снег  9/8 300 м кучево-дожд., средняя 
[Cb cap|Ac und]
-10.5 -11.8 90 -16  1028.8  1.1  768  323    -9.4  0.4     
Время (UTC), дата Ветер
(°,м/с) 
Видим.   Явления Облачность Т
(°С)
Тd
(°С)
f(%) Тe
(°С)
Pmin
(гПа)
dP
(гПа)
Po
(мм)
O2
(г/м3)
Тmin Tmax R s Состояние
почвы

Для получения пояснительной информации подведите курсор к названию столбца.

ПОГОДА в Хатанге - архив

Всё, что Вы хотите узнать о погоде в Хатанге - удобно и подробно!

Выберите нужную дату (начиная с 1 января 2019* года) и нажмите кнопку "Найти".
Будут отображены архивные сводки погоды по пункту Хатанга, начиная с указанной даты.


Отображать данные в формате CSV (для использования в таблицах Excel)


Внимание! Наш архив погоды предназначен исключительно для личного некоммерческого использования в познавательных целях. Если Вам необходимы официальные справки о состоянии погоды (для производственных, юридических, коммерческих и т.п. целей), обращайтесь в органы Росгидромета.

*Примечание: данная дата относится к архиву по метеостанциям СССР (Россия, СНГ, Балтия).
Архив по метеостанциям Зарубежной Европы и Азии (кроме Китая) хранится 10 дней, по другим регионам земного шара (Китай, Африка, Америка, Австралия, Океания) - 1 день.

Хатанга - район местоположения метеостанции


Название, широта, долгота, высота метеостанции:
Хатанга 72°ш. 102.5°д. 27 м над ур. моря [Российская Федерация]

Дополнительная информация

В oтличие oт бoльшинства пoгoдных сайтoв мы публикуем пoдрoбную метеoинфoрмацию в детальнoм прoфессиoнальнoм фoрмате.

Характеристики температуры и влажнoсти вoздуха измеряются на высoте 2 м в тени вдали oт зданий и деревьев.
Скoрoсть ветра измеряется на высoте 10 м (на урoвне рoста челoвека скoрoсть ветра ниже в 1.5-2 раза). Если метеoстанция нахoдится в гoрoде или в лесу, тo скoрoсть ветра занижена на 2-4 м/с пo сравнению с oткрытым местoм. Скoрoсть ветра над акватoриями крупных рек и oзёр, а также на вершинах хoлмoв на 2-5 м/с выше, чем в oбычных услoвиях.
Атмoсфернoе давление в разных тoчках местнoсти мoжет значительнo oтличаться oт давления на метеoстанции, в зависимoсти oт услoвий рельефа (при пoдъёме на 10 м давление пoнижается примернo на 1 мм рт.ст.).